Regional Weather Roundup
Issued by NWS Columbia, SC

Home | Current Version | Previous Version | Text Only | Print | Product List | Glossary On
Versions: 1 2 3 4 5 6 7 8 9 10 11 12 13 14 15 16 17 18 19 20 21 22 23 24 25 26 27 28
000
ASUS42 KCAE 182210
RWRCAE
REGIONAL WEATHER ROUNDUP
NATIONAL WEATHER SERVICE COLUMBIA SC
500 PM EST WED JAN 18 2017

NOTE: "FAIR" INDICATES FEW OR NO CLOUDS BELOW 12,000 FEET WITH NO
SIGNIFICANT WEATHER AND/OR OBSTRUCTIONS TO VISIBILITY.

NOT ALL STATIONS ARE QUALITY CONTROLLED BY THE NATIONAL
WEATHER SERVICE. USE DATA WITH CAUTION...ESPECIALLY
DEWPOINT OBSERVATIONS.

SCZ001>056-GAZ040-063>065-077-182300-
...UPSTATE SOUTH CAROLINA...

CITY           SKY/WX    TMP DP  RH WIND       PRES   REMARKS
ANDERSON       CLOUDY    73  34  23 W10       30.01R
LIBERTY        CLOUDY    73  30  20 NW10G18   30.00S
SPARTANBURG    CLOUDY    68  23  18 N5        30.01R
CLEMSON        PTCLDY    75  35  23 W9        30.02R
GREENVILLE     MOCLDY    71  35  26 NE8       30.02R
GREENWOOD      PTCLDY    73  43  33 W9        30.02R
GREER          PTCLDY    69  30  23 NE8       30.01R
ROCK HILL      CLEAR     69  35  28 N8        30.00R
CHESTER        CLEAR     68  16  13 NW7       30.01R
LAURENS        MOCLDY    73  39  29 W3        30.00R


...CENTRAL SOUTH CAROLINA...

CITY           SKY/WX    TMP DP  RH WIND       PRES   REMARKS
COLUMBIA APT   MOCLDY    77  46  33 W13       29.98R
COLUMBIA OWENS PTCLDY    78  44  29 W8        29.98S
MCENTIRE ANGB  MOCLDY    77  43  30 W10       29.98R
ORANGEBURG     CLEAR     78  53  41 W15G24    29.98R
SUMTER SHAW    CLEAR     75  49  40 W7        29.95R
NEWBERRY       PTCLDY    73  43  33 SW5       30.03R
AIKEN          FAIR      73  50  43 W12       30.04S
BARNWELL       FAIR      77  61  57 W10       30.01R
MANNING        FAIR      77  45  31 NW6       29.97R
CAMDEN         FAIR      73  52  46 CALM      29.98R
LANCASTER      PTCLDY    72  16  12 W7        29.99S
WINNSBORO      CLEAR     72  43  35 W3        29.99R


...EASTERN AND COASTAL SOUTH CAROLINA...

CITY           SKY/WX    TMP DP  RH WIND       PRES   REMARKS
MYRTLE BEACH   PTCLDY    77  52  41 NW12      29.95S
N MYRTLE BCH   CLEAR     74  56  53 N6        29.94R
CONWAY         FAIR      73  52  46 CALM      29.95R
MARION         FAIR      73  46  38 NW7       29.95S
HARTSVILLE     FAIR      72  41  33 CALM      29.97R
FLORENCE       CLEAR     76  42  29 NW9       29.96R
DARLINGTON     CLEAR     73  43  33 NW7       29.97R
CHARLESTON APT PTCLDY    77  58  51 W14G23    29.98R
MOUNT PLEASANT FAIR      77  61  57 W9G16     29.98R
WALTERBORO     CLEAR     75  59  57 W10G16    30.01R
BEAUFORT       MOCLDY    76  60  57 W10       30.01F


...EASTERN GEORGIA...

CITY           SKY/WX    TMP DP  RH WIND       PRES   REMARKS
AUGUSTA BUSH F PTCLDY    78  57  48 W8        30.00S
AUGUSTA DANIEL CLEAR     77  53  43 VRB7      30.02S
THOMSON        CLEAR     77  56  48 W9        30.07S
WASHINGTON     FAIR      75  48  38 W9G16     30.03S
CLAXTON        FAIR      76  71  83 SW8       30.05S
SYLVANIA       PTCLDY   N/A N/A N/A W12G20    30.05S
STATESBORO     PTCLDY    74  63  67 NW7       30.05S
SAVANNAH       MOCLDY    77  57  50 W16       30.04S


...SOUTHERN NORTH CAROLINA...

CITY           SKY/WX    TMP DP  RH WIND       PRES   REMARKS
CHARLOTTE      MOCLDY    69  18  14 NW10      30.01R
MONROE         CLEAR     71  22  15 N7        29.98S
ASHEVILLE      CLOUDY    56  31  38 N12       30.09R

$$




USA.gov is the U.S. government's official web portal to all federal, state and local government web resources and services.